Skip Page Navigation
NASA JPL Caltech
NASA Logo - Jet Propulsion Laboratory + View the NASA Portal
+ Near-Earth Object (NEO) Program
Search JPL
JPL Home Earth Solar System Stars & Galaxies Technology
JPL Solar System Dynamics
BODIES ORBITS EPHEMERIDES TOOLS PHYSICAL DATA DISCOVERY FAQ SITE MAP
JPL Small-Body Database Browser
Search: [ help ]  
(2012 DA14)
Classification: Aten [NEO]          SPK-ID: 3599602
Ephemeris | Orbit Diagram | Orbital Elements | Physical Parameters | Close-Approach Data ]

[ hide orbit diagram ]
Orbit Diagram
Note: Make sure you have Java enabled on your browser to see the applet. This applet is provided as a 3D orbit visualization tool. The applet was implemented using 2-body methods, and hence should not be used for determining accurate long-term trajectories (over several years or decades) or planetary encounter circumstances. For accurate long-term ephemerides, please instead use our Horizons system.
Orbit Viewer

Additional Notes: the orbits shown in the applet are color coded. The planets are white lines, and the asteroid/comet is a blue line. The bright white line indicates the portion of the orbit that is above the ecliptic plane, and the darker portion is below the ecliptic plane. Likewise for the asteroid/comet orbit, the light blue indicates the portion above the ecliptic plane, and the dark blue the portion below the ecliptic plane.

Orbit Viewer applet originally written and kindly provided by Osamu Ajiki (AstroArts), and further modified by Ron Baalke (JPL).


Orbital Elements at Epoch 2456400.5 (2013-Apr-18.0) TDB
Reference: JPL 71 (heliocentric ecliptic J2000)
 Element Value Uncertainty (1-sigma)   Units 
e .0894005794003277 1.3871e-07  
a .9103230719280487 1.1737e-07 AU
q .8289396618561951 2.3275e-07 AU
i 11.60807939510052 8.5591e-07 deg
node 146.9957744703233 1.2468e-07 deg
peri 195.5347011450819 3.5822e-05 deg
M 231.0978254883391 4.7829e-05 deg
tp 2456514.092457357208
(2013-Aug-09.59245736)
5.8597e-05 JED
period 317.2427835567307
0.87
6.1356e-05
1.68e-07
d
yr
n 1.134777585683437 2.1947e-07 deg/d
Q .9917064819999024 1.2787e-07 AU
  Orbit Determination Parameters
   # obs. used (total)      1013  
   # delay obs. used      4  
   # Doppler obs. used      4  
   data-arc span      362 days  
   first obs. used      2012-02-23  
   last obs. used      2013-02-19  
   planetary ephem.      DE405  
   SB-pert. ephem.      SB405-CPV-2  
   condition code      0  
   fit RMS      .26174  
   data source      ORB  
   producer      Otto Matic  
   solution date      2013-May-23 11:40:50  

Additional Information
 Earth MOID = 7.31582E-5 AU 
 T_jup = 6.532 
[ show covariance matrix ]

Ephemeris | Orbit Diagram | Orbital Elements | Physical Parameters | Close-Approach Data ]

Physical Parameter Table
Parameter Symbol Value Units Sigma Reference Notes
absolute magnitude H 24.106 mag .51528 46 autocmod 2.5b
rotation period rot_per 9.1 h n/a Asteroid Lightcurve DataBase (Rev. 2013-May-01) Published Reference List:
[Elenin, L. (2013) Minor Planet Bul., submitted.]
[http://brucegary.net/2012DA14/]

[ hide close-approach data ]
Close-Approach Data   ...sorted by Date/Time (TDB)
Date/Time (TDB) Time Uncertainty
(days_HH:MM)
Body Nominal Distance (AU) Minimum Distance (AU) Maximum Distance (AU) V-relative (km/s) V-infinity (km/s) JD (TDB) Time Uncertainty (minutes) Semi-major axis (km) Semi-minor axis (km) range-LOV angle (deg) N-sigma BP Orbit Ref. Reference Modified
1913-Aug-08 05:57 00:02 Earth 0.465949224469554 0.465484798230563 0.466413685400401 17.4140450599054 17.4137166787764 2419987.747903167 1.60655903706008 23754.4892819627 0.711317497602416 -0.208187946857394 290907.293332487 T 71 CATAB v2.0c-linF95 2013-May-23 11:40:52 2013-May-23 11:40
1914-Aug-16 15:27 00:01 Earth 0.273223413387915 0.272828836191784 0.273617920821918 12.1211156899515 12.1203111154609 2420361.143604325 1.38984154158001 18387.2799043417 0.557220920430712 0.875961338215826 814057.847614171 T 71 CATAB v2.0c-linF95 2013-May-23 11:40:52 2013-May-23 11:40
1915-Aug-23 08:09 < 00:01 Earth 0.0804324893259419 0.0801205987082772 0.0807441145397903 7.38665777357695 7.3821717168276 2420732.839700968 0.211072228269507 9986.97450842732 0.283519191733332 7.43758543707382 3013233.98272429 T 71 CATAB v2.0c-linF95 2013-May-23 11:40:52 2013-May-23 11:40
1916-Aug-20 00:16 00:05 Earth 0.107514927276604 0.107324410210581 0.107705501772685 5.27034060825163 5.26563626745936 2421095.510943007 5.41909610086382 4378.82938341918 0.186418853208567 -22.2524406462507 13937078.6541008 T 71 CATAB v2.0c-linF95 2013-May-23 11:40:52 2013-May-23 11:40
1917-Feb-06 13:48 00:01 Earth 0.196681508456422 0.196555588287027 0.196807393624287 6.22380362296925 6.22162657045041 2421266.075293592 1.35026496340473 4289.36046857155 0.121233429980161 3.28140920567532 6721659.32654087 T 71 CATAB v2.0c-linF95 2013-May-23 11:40:52 2013-May-23 11:40
1918-Feb-17 01:48 < 00:01 Moon 0.00503634296028044 0.0050332931812234 0.00503939283415905 5.89813113200024 5.89702774027902 2421641.574956763 0.036743111380033 142.462398050324 0.0584885819244091 10.636158634513 2176241.91270109 T 71 CATAB v2.0c-linF95 2013-May-23 11:40:52 2013-May-23 11:40
1918-Feb-17 03:50 < 00:01 Earth 0.00289499418656345 0.0028922789352082 0.00289771028368232 6.25706265251469 6.1081980727792 2421641.659687704 0.031728697616529 74.66693082671 0.0258936266759027 29.9013909720974 3857486.14609694 T 71 CATAB v2.0c-linF95 2013-May-23 11:40:52 2013-May-23 11:40
1919-Feb-18 11:00 < 00:01 Earth 0.0298016935779456 0.0297722096135242 0.0298311743834993 6.63508965192484 6.62160107042463 2422007.958032725 0.520936093586683 796.246936864624 0.0207071497296136 -2.47723000649108 4453400.6336611 T 71 CATAB v2.0c-linF95 2013-May-23 11:40:52 2013-May-23 11:40
1920-Feb-20 17:36 < 00:01 Earth 0.0837082250473516 0.0836726373275768 0.0837438090376323 7.70341922391555 7.69928611158007 2422375.233313357 0.627865346774699 1171.42176066287 0.0566716583954099 -1.0610437740346 2213925.16686757 T 71 CATAB v2.0c-linF95 2013-May-23 11:40:52 2013-May-23 11:40
1921-Feb-22 14:13 < 00:01 Earth 0.144989886486896 0.14495179360687 0.145027976693381 9.11558255070104 9.11356632917134 2422743.092487094 0.616791333142964 1487.29310290674 0.0987120987844811 -1.00896008552092 2385047.45611715 T 71 CATAB v2.0c-linF95 2013-May-23 11:40:52 2013-May-23 11:40
1922-Feb-25 13:29 < 00:01 Earth 0.209964547146873 0.209925284559219 0.21000380830695 10.7647426088227 10.7635636829023 2423111.061824215 0.551261373388759 1727.97155597993 0.147514038014381 -1.10333157355656 2805336.86210983 T 71 CATAB v2.0c-linF95 2013-May-23 11:40:52 2013-May-23 11:40
1923-Feb-28 21:24 < 00:01 Earth 0.277166803567692 0.277127104162453 0.277206502450554 12.5684312458421 12.56766634827 2423479.391544111 0.485854178277019 1885.66222594753 0.188589931335878 -1.29093561737476 3672433.47822263 T 71 CATAB v2.0c-linF95 2013-May-23 11:40:52 2013-May-23 11:40
1924-Mar-03 03:24 < 00:01 Earth 0.345854445494937 0.345814727321809 0.34589416367333 14.4652342816428 14.46470168121 2423847.641936349 0.422074696051916 1975.17743592428 0.235693545027022 -1.4183864219873 4277482.01143359 T 71 CATAB v2.0c-linF95 2013-May-23 11:40:52 2013-May-23 11:40
1925-Mar-06 17:50 < 00:01 Earth 0.415257241811309 0.415217858480752 0.415296625407318 16.4333398449654 16.4329493868428 2424216.243380893 0.369481100720204 2010.87081954451 0.270867037770599 -1.62238761029267 5350622.2398333 T 71 CATAB v2.0c-linF95 2013-May-23 11:40:52 2013-May-23 11:40
1926-Mar-10 03:14 < 00:01 Earth 0.484549148752334 0.484510250779907 0.484588047093477 18.4153704903208 18.4150718849743 2424584.635052048 0.322555963257374 2014.85590408699 0.312631427200931 -1.74964879478362 6036376.23055932 T 71 CATAB v2.0c-linF95 2013-May-23 11:40:52 2013-May-23 11:40
1996-Jul-26 17:16 < 00:01 Earth 0.48646755829575 0.486461079327315 0.486474037274015 18.1089838791231 18.108681419076 2450291.219403274 0.0559419158278196 335.27174145784 0.404334954712498 -2.9174603655737 7788383.44507946 T 71 CATAB v2.0c-linF95 2013-May-23 11:40:52 2013-May-23 11:40
1997-Jul-30 07:40 < 00:01 Earth 0.418649017008126 0.418642983860861 0.418655050161229 16.2217869821585 16.2213946365138 2450659.819289932 0.0584883137093416 307.639899138245 0.405938971334862 -2.89910500038271 6418299.33004977 T 71 CATAB v2.0c-linF95 2013-May-23 11:40:52 2013-May-23 11:40
1998-Aug-02 18:33 < 00:01 Earth 0.350689770971771 0.350684227872967 0.350695314070563 14.3169119452621 14.3163812466511 2451028.272711873 0.061398928206664 275.409628681237 0.407678165509668 -2.93738896132832 5190492.61026045 T 71 CATAB v2.0c-linF95 2013-May-23 11:40:52 2013-May-23 11:40
1999-Aug-06 07:10 < 00:01 Earth 0.283559426139806 0.283554416016365 0.2835644362554 12.5152604252838 12.5145095956559 2451396.798568274 0.0639282776987602 238.141873043176 0.415574801951079 -3.03602372290035 4024598.27204249 T 71 CATAB v2.0c-linF95 2013-May-23 11:40:52 2013-May-23 11:40
2000-Aug-08 18:36 < 00:01 Earth 0.21734246865308 0.217338037714492 0.217346899574669 10.7547252237579 10.7535852589169 2451765.275183415 0.0660364106951104 195.797913281322 0.424784846222432 -3.25290833365158 3003423.44752635 T 71 CATAB v2.0c-linF95 2013-May-23 11:40:52 2013-May-23 11:40
2001-Aug-12 04:10 < 00:01 Earth 0.15307497317088 0.153071200056196 0.153078746261322 9.16611600133882 9.16421681399552 2452133.673706078 0.0658425238085148 148.997040397954 0.435206234221745 -3.84499840843152 2229046.77875759 T 71 CATAB v2.0c-linF95 2013-May-23 11:40:52 2013-May-23 11:40
2002-Aug-15 10:03 < 00:01 Earth 0.0923038927158312 0.0923009018663615 0.0923068835412038 7.75002124061605 7.74629566104374 2452501.918743709 0.0609203649380506 100.562737275547 0.445534141990429 -5.48526265512328 1679238.98258271 T 71 CATAB v2.0c-linF95 2013-May-23 11:40:52 2013-May-23 11:40
